TimeEDT,TemperatureF,Dew PointF,Humidity,Sea Level PressureIn,VisibilityMPH,Wind Direction,Wind SpeedMPH,Gust SpeedMPH,PrecipitationIn,Events,Conditions,WindDirDegrees,DateUTC
12:00 AM,73.4,69.8,88,29.73,7.0,SSE,13.8,20.7,0.01,Rain-Thunderstorm,Light Rain,160,2013-07-20 04:00:00
12:21 AM,73.4,69.8,88,29.68,10.0,South,11.5,-,0.02,Rain,Light Rain,190,2013-07-20 04:21:00
12:53 AM,72.0,68.0,87,29.65,10.0,SSW,13.8,-,0.02,,Clear,200,2013-07-20 04:53:00
1:53 AM,71.1,68.0,90,29.68,10.0,South,8.1,-,N/A,,Clear,190,2013-07-20 05:53:00
2:53 AM,71.1,66.9,87,29.66,10.0,South,3.5,-,N/A,,Clear,180,2013-07-20 06:53:00
3:53 AM,69.1,66.0,90,29.67,10.0,South,8.1,-,N/A,,Clear,180,2013-07-20 07:53:00
4:53 AM,69.1,64.9,87,29.66,10.0,South,8.1,-,N/A,,Clear,170,2013-07-20 08:53:00
5:53 AM,68.0,64.9,90,29.68,9.0,Calm,Calm,-,N/A,,Clear,0,2013-07-20 09:53:00
6:53 AM,70.0,66.9,90,29.69,10.0,SSW,3.5,-,N/A,,Clear,200,2013-07-20 10:53:00
7:53 AM,73.0,66.9,81,29.70,10.0,South,5.8,-,N/A,,Clear,170,2013-07-20 11:53:00
8:53 AM,78.1,66.9,68,29.68,10.0,Variable,4.6,-,N/A,,Clear,0,2013-07-20 12:53:00
9:53 AM,81.0,64.0,56,29.68,10.0,WSW,8.1,-,N/A,,Partly Cloudy,250,2013-07-20 13:53:00
10:53 AM,84.0,64.0,51,29.67,10.0,SSW,9.2,-,N/A,,Clear,210,2013-07-20 14:53:00
11:53 AM,86.0,64.9,49,29.65,10.0,WSW,9.2,-,N/A,,Clear,250,2013-07-20 15:53:00
12:53 PM,82.9,64.9,54,29.65,10.0,SW,11.5,17.3,N/A,,Scattered Clouds,230,2013-07-20 16:53:00
1:53 PM,84.9,66.0,53,29.63,10.0,SW,10.4,18.4,N/A,,Partly Cloudy,220,2013-07-20 17:53:00
2:53 PM,84.9,64.9,51,29.63,10.0,WSW,12.7,21.9,N/A,,Partly Cloudy,240,2013-07-20 18:53:00
3:53 PM,86.0,66.0,51,29.63,10.0,WSW,8.1,23.0,N/A,,Partly Cloudy,240,2013-07-20 19:53:00
4:53 PM,81.0,66.0,60,29.65,10.0,SW,12.7,20.7,0.00,,Mostly Cloudy,230,2013-07-20 20:53:00
5:53 PM,81.0,66.0,60,29.67,10.0,SSW,9.2,-,N/A,,Scattered Clouds,210,2013-07-20 21:53:00
6:53 PM,81.0,63.0,54,29.70,10.0,West,8.1,-,N/A,,Mostly Cloudy,260,2013-07-20 22:53:00
7:53 PM,79.0,63.0,58,29.70,10.0,West,4.6,-,N/A,,Scattered Clouds,280,2013-07-20 23:53:00
8:53 PM,71.1,64.9,81,29.73,10.0,Calm,Calm,-,N/A,,Clear,0,2013-07-21 00:53:00
9:53 PM,69.1,64.9,87,29.75,10.0,South,6.9,-,N/A,,Clear,170,2013-07-21 01:53:00
10:53 PM,68.0,64.9,90,29.76,10.0,South,5.8,-,N/A,,Clear,170,2013-07-21 02:53:00
11:53 PM,66.0,64.0,93,29.78,10.0,Calm,Calm,-,N/A,,Clear,0,2013-07-21 03:53:00